SCP
0 0 0 0 0 0 0 0 0 0 0 0 0 0 0 0 0 0 0 0 0 0 0 0 0 0 0 0 0 0 0 0 0 0 0 0 0 0 0 0 0 0 0 0
0 0 0 0 0 0 0 0 0 0 0 0 0 0 0 0 0 0 0 0 0 0 0 0 0 0 0 0 0 0 0 0 0 0 0 0 0 0 0 0 0 0 0 0
0 0 0 0 0 0 0 0 0 0 0 0 0 0 0 0 0 0 0 0 0 0 0 0 0 0 0 0 0 0 0 0 0 0 0 0 0 0 0 0 0 0 0 0
0 0 0 0 0 0 0 0 0 0 0 0 0 -0 0 0 0 0 0 0 0 0 0 0 0 0 0 0 0 0 0 0 0 0 0 0 0 0 0 0 0 0 0 0
0 0 0 0 0 0 0 0 0 0 0 0 0 0 -0 0 0 0 0 0 0 0 0 0 0 0 0 0 0 0 0 0 0 0 0 0 0 0 0 0 0 0 0 0
0 0 0 0 0 0 0 0 0 0 0 0 0 0 0 0 0 0 0 0 0 0 0 0 0 0 0 0 0 0 0 0 0 0 0 0 0 0 0 0 0 0 0 0
0 0 0 0 0 0 0 0 0 0 0 0 0 0 0 0 0 0 0 0 0 -0 0 0 0 0 0 0 0 0 0 0 0 0 0 0 0 0 0 0 0 0 0 0
0 0 0 0 0 0 0 0 0 0 0 0 0 0 0 0 0 0 -0 0 0 0 0 0 0 0 0 0 0 0 0 0 0 0 0 0 0 0 0 0 0 0 0 0
0 0 0 0 0 0 0 0 0 0 0 0 0 0 0 0 0 -0 -0 -0 0 0 0 0 0 0 0 0 0 0 0 0 0 0 0 0 0 0 0 0 0 0 0 0
0 0 0 0 0 0 0 0 0 0 -0 -0 0 0 0 0 -0 -0 -0 0 0 -0 -0 0 0 0 0 0 0 0 0 0 0 0 0 0 0 0 0 0 0 0 0 0
0 0 0 0 0 0 0 0 0 0 0 0 0 0 -0 -0 0 0 -0 -0 0 0 0 -0 -0 0 0 0 0 0 0 0 0 0 0 0 0 0 0 0 0 0 0 -0
0 0 0 0 0 0 0 0 0 0 0 0 0 0 0 -0 0 0 -0 -0 0 0 0 -0 -0 -0 0 0 0 0 0 0 0 0 0 0 0 0 0 0 0 0 0 0
0 0 0 0 0 0 0 0 0 0 0 0 0 0 0 -0 -0 -0 -0 -0 -0 -0 0 0 0 0 0 0 0 0 0 0 0 0 0 0 0 0 0 0 -0 -0 -0 -0
0 0 0 0 0 0 0 0 0 0 0 0 0 -0 -0 -0 -0 -0 -0 -0 -0 -0 0 0 0 0 0 0 0 0 0 0 0 0 0 0 0 0 0 0 0 -0 -0 -0
0 0 0 0 0 0 -0 0 0 0 0 0 0 0 -0 -0 -0 -0 -0 -0 -0 -0 0 0 0 0 0 0 0 0 0 0 0 0 0 0 0 0 0 0 0 0 -0 -0
0 0 0 0 0 0 0 0 0 -0 0 0 0 -0 0 0 0 -0 -0 -0 -0 -0 -0 0 0 0 0 0 0 0 0 0 0 0 0 0 0 0 0 0 0 0 0 0
0 0 0 -0 0 -0 0 0 0 0 0 0 0 -0 0 0 -0 0 -0 -0 -0 -0 -0 -0 0 0 0 0 0 0 0 0 0 0 0 0 0 0 0 0 0 0 0 0
0 0 0 0 0 0 0 0 0 0 0 0 0 0 0 0 0 -0 0 0 -0 -0 -0 0 0 0 0 0 0 0 0 0 0 0 0 0 0 0 0 0 0 0 0 0
0 0 0 0 0 0 0 0 0 0 0 0 0 0 0 0 0 -0 -0 -0 -0 -0 -0 0 0 0 0 0 0 0 0 0 0 0 0 0 0 0 0 0 0 0 0 0
0 0 0 0 0 0 0 0 0 0 0 -0 0 0 0 0 0 0 0 0 -0 0 -0 0 0 0 0 0 0 0 0 0 0 0 0 0 0 0 0 0 0 0 0 0
0 0 0 0 0 0 0 0 -0 0 0 0 -0 0 0 0 0 0 0 0 0 -0 -0 0 0 0 0 0 0 0 0 0 0 0 0 0 0 0 0 0 0 0 0 0
0 0 0 0 0 0 0 0 0 0 0 -0 -0 -0 0 0 0 0 0 0 0 0 -0 0 0 0 0 0 0 0 0 0 0 0 0 0 0 0 0 0 0 0 0 0
0 0 0 0 0 0 -0 0 0 0 -0 -0 -0 -0 -0 0 0 0 0 -0 0 -0 0 0 0 0 0 0 0 0 0 0 0 0 0 0 0 0 0 0 0 0 0 0
0 0 0 0 0 0 -0 0 -0 -0 -0 -0 -0 -0 -0 -0 0 0 -0 0 -0 -0 -0 0 0 0 0 0 0 0 0 0 0 0 0 0 0 0 0 0 0 0 0 0
0 0 0 0 0 0 0 -0 -0 -0 -0 -0 -0 -0 0 0 0 0 0 0 0 0 0 0 0 0 0 0 0 0 0 0 0 0 0 0 0 0 0 0 0 0 0 0
0 0 0 0 0 0 0 0 0 -0 -0 0 -0 0 0 -0 0 0 0 0 -0 0 0 0 0 0 0 0 0 0 0 0 0 0 0 0 0 0 0 0 0 0 0 0
Wind_Speed_500mb
5 3 10 12 12 2 2 6 11 8 1 5 16 16 35 53 35 38 46 48 36 28 24 31 38 42 44 43 41 44 48 52 62 70 68 62 55 49 47 46 46 46 46 44
6 9 5 7 5 8 7 10 12 10 2 3 13 31 38 32 19 18 13 7 8 8 10 20 29 35 36 36 39 43 48 56 63 65 60 56 54 52 52 49 48 47 48 46
8 3 6 7 5 5 7 9 7 11 10 2 12 15 12 3 4 7 8 5 6 4 9 16 25 29 32 35 37 44 53 61 62 59 55 52 51 50 49 49 49 47 49 42
8 6 3 2 6 8 5 5 2 5 8 7 6 12 12 5 12 6 7 8 6 5 4 11 18 23 28 33 41 50 58 58 54 50 49 49 52 54 49 47 47 49 47 41
7 2 3 1 3 5 9 5 4 5 4 7 2 3 15 6 4 7 10 9 6 9 11 16 20 25 31 37 48 53 52 48 45 44 44 46 49 49 49 47 46 45 46 40
10 5 2 4 3 2 6 3 4 6 5 3 5 6 11 5 8 2 5 8 13 13 19 22 25 31 38 44 45 44 44 41 39 41 42 44 46 48 48 46 46 42 43 41
8 2 1 5 2 4 7 7 6 7 5 10 1 3 16 8 6 8 9 19 17 23 27 30 34 36 38 37 36 37 38 35 36 38 38 40 41 43 44 43 44 44 41 38
5 9 3 8 5 8 3 5 5 9 5 8 3 10 7 8 8 15 23 23 28 30 33 31 32 33 32 32 33 33 34 32 33 34 35 35 36 38 39 39 39 39 39 36
3 9 4 6 1 1 6 4 4 6 3 3 5 11 11 5 7 8 9 21 29 36 34 30 26 28 28 29 29 31 30 31 33 33 32 29 29 31 35 34 34 33 31 30
4 8 2 1 1 5 1 7 3 1 3 8 6 9 7 7 7 9 12 27 43 35 29 25 24 24 24 25 25 26 29 33 33 31 32 32 30 28 29 32 31 29 23 23
7 6 6 4 8 9 5 4 2 1 1 3 5 10 12 11 9 13 18 48 43 35 27 23 21 22 22 22 24 25 26 27 27 28 28 28 25 23 25 27 28 27 22 23
5 6 7 15 2 4 3 4 7 4 5 1 1 12 6 11 9 12 41 48 36 31 27 25 23 21 19 18 19 21 23 24 27 27 23 21 21 17 19 19 23 25 24 24
6 3 7 8 1 2 5 7 5 4 4 10 6 10 2 5 13 27 34 45 36 32 29 26 22 20 16 14 15 16 18 22 26 23 19 17 18 17 16 15 18 20 23 27
6 5 12 9 2 4 5 8 9 5 4 6 12 19 27 21 28 40 53 38 40 36 31 26 21 17 12 10 11 13 18 24 26 22 18 16 17 15 14 15 15 16 18 20
5 7 4 13 21 18 18 19 16 17 11 11 9 11 28 31 27 38 52 41 48 38 30 25 19 13 9 7 8 12 17 21 22 21 20 22 22 20 18 17 16 17 17 19
2 6 2 10 3 6 9 19 22 25 12 17 6 40 21 26 50 47 53 47 46 39 27 23 19 12 7 4 6 9 13 15 18 21 22 25 28 29 27 26 24 23 22 21
7 3 5 10 4 9 6 8 6 3 5 11 8 16 10 26 26 39 56 47 43 27 17 17 16 11 6 4 3 6 11 16 19 22 24 27 28 28 28 28 28 28 30 29
7 6 3 7 11 3 10 1 5 9 11 13 15 17 24 38 59 44 29 51 47 25 17 15 14 13 8 4 6 10 12 14 16 18 21 25 28 28 27 27 26 26 25 27
9 4 3 2 3 11 4 6 10 9 8 12 11 14 30 50 34 12 44 58 51 36 26 18 16 15 13 11 11 11 8 7 6 9 11 13 16 18 18 18 17 17 18 19
7 5 5 3 2 6 9 4 8 5 5 10 13 14 13 38 11 9 63 60 50 42 31 27 22 20 19 17 18 17 14 9 6 3 2 4 5 6 7 8 9 10 12 13
4 1 9 6 5 12 7 3 14 8 9 20 26 38 24 4 18 57 57 55 53 45 36 32 33 28 22 28 27 24 21 15 15 12 10 7 5 5 6 8 10 9 7 7
12 11 7 4 2 11 7 7 2 6 20 40 39 42 49 57 62 60 61 56 52 43 38 33 38 35 32 36 36 34 30 22 23 22 20 17 14 11 10 9 8 10 12 11
5 8 3 13 9 6 5 24 23 33 37 37 43 48 49 58 61 60 63 58 49 42 40 36 39 42 41 45 46 45 32 34 32 30 27 25 24 20 18 16 15 13 12 12
5 5 3 6 7 10 43 15 33 45 42 45 47 42 46 53 53 58 58 57 54 48 46 45 43 46 49 50 54 50 42 41 45 39 35 34 33 30 28 26 23 22 20 20
4 1 5 9 10 27 24 41 48 45 53 47 43 43 47 47 52 53 60 59 56 54 50 49 50 50 49 46 58 57 52 50 54 50 44 42 41 38 36 35 32 31 26 29
10 8 7 6 4 7 27 39 41 52 48 44 43 47 40 42 51 54 58 57 56 56 52 51 50 53 49 44 51 58 58 60 62 62 57 50 47 45 44 43 41 40 36 34
Wind_Direction_500mb
33 48 227 228 223 294 285 235 258 259 218 267 247 269 276 277 258 260 270 279 277 267 255 241 238 237 243 253 265 276 286 295 305 309 308 304 302 301 299 296 294 292 291 288
21 232 256 254 213 237 266 275 274 275 96 242 306 288 270 277 268 248 265 230 280 257 237 228 233 239 249 262 273 283 294 304 308 307 305 305 306 305 302 297 295 295 292 291
184 182 323 188 220 206 225 213 246 258 323 163 314 287 316 277 283 250 248 257 301 279 239 233 236 244 255 267 281 293 300 304 304 305 305 304 303 301 299 297 294 290 289 290
226 296 332 228 252 150 281 341 303 342 37 269 18 288 302 318 302 268 265 234 275 307 274 241 242 252 268 282 291 300 303 304 306 305 305 306 307 306 305 301 295 293 292 291
273 29 49 213 249 159 227 18 68 90 86 19 311 50 273 336 80 52 26 36 307 303 286 266 269 279 288 298 303 303 305 307 306 307 308 308 306 306 306 304 300 295 293 292
259 295 9 202 55 67 156 44 105 62 109 319 217 131 283 236 199 13 9 359 354 330 301 293 291 296 303 301 301 304 306 309 310 310 309 307 309 308 308 310 306 301 296 292
329 69 118 24 154 45 36 57 311 325 10 230 220 83 254 275 240 221 280 327 342 332 313 299 296 301 298 300 306 308 310 314 313 311 310 312 308 307 310 310 307 305 300 293
20 318 50 1 127 164 79 163 215 253 306 297 84 236 234 212 253 271 290 310 318 325 323 312 306 301 304 311 313 313 315 320 320 319 318 312 312 312 310 309 305 300 297 293
95 275 81 58 62 78 158 192 74 119 171 266 248 270 299 338 326 0 331 323 320 325 324 313 307 310 314 318 318 319 324 324 324 324 319 319 318 314 313 309 304 302 301 303
222 317 134 156 143 42 104 138 145 141 235 260 290 281 241 311 293 303 294 323 336 333 327 320 319 318 319 318 322 327 328 333 332 330 326 328 325 322 319 318 314 310 312 308
143 119 290 95 200 182 148 197 159 50 271 240 303 275 210 209 220 259 291 326 334 331 333 331 328 325 324 326 329 335 336 336 334 333 329 327 323 323 327 325 320 309 297 286
214 165 266 232 17 40 88 173 174 214 196 217 193 275 198 224 234 265 299 330 332 332 337 338 333 330 332 334 338 342 348 347 348 341 334 331 328 335 330 326 316 307 305 303
188 232 319 324 140 66 208 178 129 100 56 208 152 264 340 284 295 312 300 334 333 337 340 339 336 335 340 342 347 358 2 359 2 353 349 348 340 339 332 323 309 315 324 325
173 224 194 216 194 158 201 197 191 193 140 195 233 291 301 324 328 320 329 330 341 344 341 343 341 341 340 349 7 14 8 12 11 12 15 14 6 359 345 344 335 330 325 314
165 233 195 260 260 243 251 242 191 198 213 234 271 246 291 307 298 295 308 310 319 333 341 342 343 339 345 360 20 18 15 19 23 28 35 39 42 35 27 21 10 9 5 350
182 271 30 279 307 148 253 250 229 220 234 260 341 286 278 281 306 308 314 314 309 318 331 338 337 330 339 353 11 22 31 32 43 50 51 54 53 48 45 48 46 39 34 33
175 191 29 271 287 274 297 239 182 229 284 155 202 237 340 310 314 321 324 335 329 327 323 328 325 307 299 302 16 57 61 66 67 67 66 65 63 59 56 58 58 58 54 53
154 147 131 272 342 17 243 353 153 205 228 229 286 280 285 286 304 315 20 2 357 342 326 321 306 291 272 233 147 125 100 87 77 75 72 70 69 69 66 65 62 69 71 64
174 128 294 116 227 294 338 215 168 180 257 202 222 278 301 328 317 243 2 351 344 335 315 310 300 285 260 227 192 178 162 131 106 86 72 65 70 72 68 61 57 53 42 42
181 128 127 67 152 211 235 267 176 138 273 223 214 272 299 343 13 267 332 335 336 330 310 294 280 270 257 238 221 206 205 203 207 200 118 50 18 11 17 42 58 57 37 37
107 63 176 218 264 288 280 149 153 94 258 332 320 320 308 273 273 303 324 331 333 325 318 284 277 271 251 243 235 229 225 225 241 244 262 271 283 307 329 342 348 352 4 15
167 149 195 98 129 279 207 155 299 290 338 330 328 326 319 316 314 315 318 324 332 329 321 297 276 270 258 249 244 240 241 234 246 250 256 261 262 267 272 286 307 319 327 336
231 186 189 182 215 211 310 280 312 337 328 327 322 321 321 317 316 316 315 318 320 321 324 319 292 273 259 253 251 247 246 246 251 249 249 253 258 261 265 269 275 275 280 293
252 188 220 13 292 274 316 97 352 338 329 323 321 320 325 321 316 315 317 318 317 312 307 306 303 286 270 259 257 257 248 245 252 253 251 251 253 255 258 262 264 267 274 279
181 132 200 270 304 342 149 345 343 337 333 327 325 322 324 323 323 321 315 315 316 314 314 306 295 290 283 269 260 258 254 249 253 257 254 254 257 258 260 263 265 269 271 276
192 184 165 230 208 273 286 324 337 329 338 337 329 328 329 329 326 325 322 320 314 311 311 312 304 291 286 276 263 256 255 252 253 255 257 257 260 262 263 265 266 269 271 270
Wind_Speed_850mb
5 3 10 12 12 2 2 6 11 8 1 5 16 16 35 53 35 38 46 48 36 28 24 31 38 42 44 43 41 44 48 52 62 70 68 62 55 49 47 46 46 46 46 44
6 9 5 7 5 8 7 10 12 10 2 3 13 31 38 32 19 18 13 7 8 8 10 20 29 35 36 36 39 43 48 56 63 65 60 56 54 52 52 49 48 47 48 46
8 3 6 7 5 5 7 9 7 11 10 2 12 15 12 3 4 7 8 5 6 4 9 16 25 29 32 35 37 44 53 61 62 59 55 52 51 50 49 49 49 47 49 42
8 6 3 2 6 8 5 5 2 5 8 7 6 12 12 5 12 6 7 8 6 5 4 11 18 23 28 33 41 50 58 58 54 50 49 49 52 54 49 47 47 49 47 41
7 2 3 1 3 5 9 5 4 5 4 7 2 3 15 6 4 7 10 9 6 9 11 16 20 25 31 37 48 53 52 48 45 44 44 46 49 49 49 47 46 45 46 40
10 5 2 4 3 2 6 3 4 6 5 3 5 6 11 5 8 2 5 8 13 13 19 22 25 31 38 44 45 44 44 41 39 41 42 44 46 48 48 46 46 42 43 41
8 2 1 5 2 4 7 7 6 7 5 10 1 3 16 8 6 8 9 19 17 23 27 30 34 36 38 37 36 37 38 35 36 38 38 40 41 43 44 43 44 44 41 38
5 9 3 8 5 8 3 5 5 9 5 8 3 10 7 8 8 15 23 23 28 30 33 31 32 33 32 32 33 33 34 32 33 34 35 35 36 38 39 39 39 39 39 36
3 9 4 6 1 1 6 4 4 6 3 3 5 11 11 5 7 8 9 21 29 36 34 30 26 28 28 29 29 31 30 31 33 33 32 29 29 31 35 34 34 33 31 30
4 8 2 1 1 5 1 7 3 1 3 8 6 9 7 7 7 9 12 27 43 35 29 25 24 24 24 25 25 26 29 33 33 31 32 32 30 28 29 32 31 29 23 23
7 6 6 4 8 9 5 4 2 1 1 3 5 10 12 11 9 13 18 48 43 35 27 23 21 22 22 22 24 25 26 27 27 28 28 28 25 23 25 27 28 27 22 23
5 6 7 15 2 4 3 4 7 4 5 1 1 12 6 11 9 12 41 48 36 31 27 25 23 21 19 18 19 21 23 24 27 27 23 21 21 17 19 19 23 25 24 24
6 3 7 8 1 2 5 7 5 4 4 10 6 10 2 5 13 27 34 45 36 32 29 26 22 20 16 14 15 16 18 22 26 23 19 17 18 17 16 15 18 20 23 27
6 5 12 9 2 4 5 8 9 5 4 6 12 19 27 21 28 40 53 38 40 36 31 26 21 17 12 10 11 13 18 24 26 22 18 16 17 15 14 15 15 16 18 20
5 7 4 13 21 18 18 19 16 17 11 11 9 11 28 31 27 38 52 41 48 38 30 25 19 13 9 7 8 12 17 21 22 21 20 22 22 20 18 17 16 17 17 19
2 6 2 10 3 6 9 19 22 25 12 17 6 40 21 26 50 47 53 47 46 39 27 23 19 12 7 4 6 9 13 15 18 21 22 25 28 29 27 26 24 23 22 21
7 3 5 10 4 9 6 8 6 3 5 11 8 16 10 26 26 39 56 47 43 27 17 17 16 11 6 4 3 6 11 16 19 22 24 27 28 28 28 28 28 28 30 29
7 6 3 7 11 3 10 1 5 9 11 13 15 17 24 38 59 44 29 51 47 25 17 15 14 13 8 4 6 10 12 14 16 18 21 25 28 28 27 27 26 26 25 27
9 4 3 2 3 11 4 6 10 9 8 12 11 14 30 50 34 12 44 58 51 36 26 18 16 15 13 11 11 11 8 7 6 9 11 13 16 18 18 18 17 17 18 19
7 5 5 3 2 6 9 4 8 5 5 10 13 14 13 38 11 9 63 60 50 42 31 27 22 20 19 17 18 17 14 9 6 3 2 4 5 6 7 8 9 10 12 13
4 1 9 6 5 12 7 3 14 8 9 20 26 38 24 4 18 57 57 55 53 45 36 32 33 28 22 28 27 24 21 15 15 12 10 7 5 5 6 8 10 9 7 7
12 11 7 4 2 11 7 7 2 6 20 40 39 42 49 57 62 60 61 56 52 43 38 33 38 35 32 36 36 34 30 22 23 22 20 17 14 11 10 9 8 10 12 11
5 8 3 13 9 6 5 24 23 33 37 37 43 48 49 58 61 60 63 58 49 42 40 36 39 42 41 45 46 45 32 34 32 30 27 25 24 20 18 16 15 13 12 12
5 5 3 6 7 10 43 15 33 45 42 45 47 42 46 53 53 58 58 57 54 48 46 45 43 46 49 50 54 50 42 41 45 39 35 34 33 30 28 26 23 22 20 20
4 1 5 9 10 27 24 41 48 45 53 47 43 43 47 47 52 53 60 59 56 54 50 49 50 50 49 46 58 57 52 50 54 50 44 42 41 38 36 35 32 31 26 29
10 8 7 6 4 7 27 39 41 52 48 44 43 47 40 42 51 54 58 57 56 56 52 51 50 53 49 44 51 58 58 60 62 62 57 50 47 45 44 43 41 40 36 34
Wind_Direction_850mb
33 48 227 228 223 294 285 235 258 259 218 267 247 269 276 277 258 260 270 279 277 267 255 241 238 237 243 253 265 276 286 295 305 309 308 304 302 301 299 296 294 292 291 288
21 232 256 254 213 237 266 275 274 275 96 242 306 288 270 277 268 248 265 230 280 257 237 228 233 239 249 262 273 283 294 304 308 307 305 305 306 305 302 297 295 295 292 291
184 182 323 188 220 206 225 213 246 258 323 163 314 287 316 277 283 250 248 257 301 279 239 233 236 244 255 267 281 293 300 304 304 305 305 304 303 301 299 297 294 290 289 290
226 296 332 228 252 150 281 341 303 342 37 269 18 288 302 318 302 268 265 234 275 307 274 241 242 252 268 282 291 300 303 304 306 305 305 306 307 306 305 301 295 293 292 291
273 29 49 213 249 159 227 18 68 90 86 19 311 50 273 336 80 52 26 36 307 303 286 266 269 279 288 298 303 303 305 307 306 307 308 308 306 306 306 304 300 295 293 292
259 295 9 202 55 67 156 44 105 62 109 319 217 131 283 236 199 13 9 359 354 330 301 293 291 296 303 301 301 304 306 309 310 310 309 307 309 308 308 310 306 301 296 292
329 69 118 24 154 45 36 57 311 325 10 230 220 83 254 275 240 221 280 327 342 332 313 299 296 301 298 300 306 308 310 314 313 311 310 312 308 307 310 310 307 305 300 293
20 318 50 1 127 164 79 163 215 253 306 297 84 236 234 212 253 271 290 310 318 325 323 312 306 301 304 311 313 313 315 320 320 319 318 312 312 312 310 309 305 300 297 293
95 275 81 58 62 78 158 192 74 119 171 266 248 270 299 338 326 0 331 323 320 325 324 313 307 310 314 318 318 319 324 324 324 324 319 319 318 314 313 309 304 302 301 303
222 317 134 156 143 42 104 138 145 141 235 260 290 281 241 311 293 303 294 323 336 333 327 320 319 318 319 318 322 327 328 333 332 330 326 328 325 322 319 318 314 310 312 308
143 119 290 95 200 182 148 197 159 50 271 240 303 275 210 209 220 259 291 326 334 331 333 331 328 325 324 326 329 335 336 336 334 333 329 327 323 323 327 325 320 309 297 286
214 165 266 232 17 40 88 173 174 214 196 217 193 275 198 224 234 265 299 330 332 332 337 338 333 330 332 334 338 342 348 347 348 341 334 331 328 335 330 326 316 307 305 303
188 232 319 324 140 66 208 178 129 100 56 208 152 264 340 284 295 312 300 334 333 337 340 339 336 335 340 342 347 358 2 359 2 353 349 348 340 339 332 323 309 315 324 325
173 224 194 216 194 158 201 197 191 193 140 195 233 291 301 324 328 320 329 330 341 344 341 343 341 341 340 349 7 14 8 12 11 12 15 14 6 359 345 344 335 330 325 314
165 233 195 260 260 243 251 242 191 198 213 234 271 246 291 307 298 295 308 310 319 333 341 342 343 339 345 360 20 18 15 19 23 28 35 39 42 35 27 21 10 9 5 350
182 271 30 279 307 148 253 250 229 220 234 260 341 286 278 281 306 308 314 314 309 318 331 338 337 330 339 353 11 22 31 32 43 50 51 54 53 48 45 48 46 39 34 33
175 191 29 271 287 274 297 239 182 229 284 155 202 237 340 310 314 321 324 335 329 327 323 328 325 307 299 302 16 57 61 66 67 67 66 65 63 59 56 58 58 58 54 53
154 147 131 272 342 17 243 353 153 205 228 229 286 280 285 286 304 315 20 2 357 342 326 321 306 291 272 233 147 125 100 87 77 75 72 70 69 69 66 65 62 69 71 64
174 128 294 116 227 294 338 215 168 180 257 202 222 278 301 328 317 243 2 351 344 335 315 310 300 285 260 227 192 178 162 131 106 86 72 65 70 72 68 61 57 53 42 42
181 128 127 67 152 211 235 267 176 138 273 223 214 272 299 343 13 267 332 335 336 330 310 294 280 270 257 238 221 206 205 203 207 200 118 50 18 11 17 42 58 57 37 37
107 63 176 218 264 288 280 149 153 94 258 332 320 320 308 273 273 303 324 331 333 325 318 284 277 271 251 243 235 229 225 225 241 244 262 271 283 307 329 342 348 352 4 15
167 149 195 98 129 279 207 155 299 290 338 330 328 326 319 316 314 315 318 324 332 329 321 297 276 270 258 249 244 240 241 234 246 250 256 261 262 267 272 286 307 319 327 336
231 186 189 182 215 211 310 280 312 337 328 327 322 321 321 317 316 316 315 318 320 321 324 319 292 273 259 253 251 247 246 246 251 249 249 253 258 261 265 269 275 275 280 293
252 188 220 13 292 274 316 97 352 338 329 323 321 320 325 321 316 315 317 318 317 312 307 306 303 286 270 259 257 257 248 245 252 253 251 251 253 255 258 262 264 267 274 279
181 132 200 270 304 342 149 345 343 337 333 327 325 322 324 323 323 321 315 315 316 314 314 306 295 290 283 269 260 258 254 249 253 257 254 254 257 258 260 263 265 269 271 276
192 184 165 230 208 273 286 324 337 329 338 337 329 328 329 329 326 325 322 320 314 311 311 312 304 291 286 276 263 256 255 252 253 255 257 257 260 262 263 265 266 269 271 270